Weather History for Lee's Summit, MO

Change the Weather History Date:

Saturday, October 5, 2013

  Actual Average (KMKC) Record (KMKC)
Temperature  
Mean Temperature 58 °F -  
Max Temperature 66 °F 70 °F 89 °F (2007)
Min Temperature 46 °F 50 °F 39 °F (2012)
Degree Days  
Heating Degree Days 7    
Growing Degree Days 8 (Base 50)    
Moisture  
Dew Point 42 °F    
Average Humidity 64    
Maximum Humidity 90    
Minimum Humidity 42    
Precipitation  
Precipitation 0.21 in - - ()
Sea Level Pressure  
Sea Level Pressure 29.95 in    
Wind  
Wind Speed 9 mph (West)    
Max Wind Speed 15 mph    
Max Gust Speed 22 mph    
Visibility 10 miles    
Events Rain    
Averages and records for this station are not official NWS values.
T = Trace of Precipitation, MM = Missing Value Source: NWS Daily Summary

Daily Weather History Graph

Daily Weather History Graph

Search for Another Location

Airport:

Trip Planner

Search our weather history database for the weather conditions in past years. The results will help you decide how hot, cold, wet, or windy it might be!

Date:

Astronomy

Oct. 05, 2013 Rise Set
Actual Time 7:17 AM CDT 6:53 PM CDT
Civil Twilight 6:50 AM CDT 7:20 PM CDT
Nautical Twilight 6:19 AM CDT 7:50 PM CDT
Astronomical Twilight 5:48 AM CDT 8:21 PM CDT
Moon 7:56 AM CDT (10/5) 7:13 PM CDT (10/5)
Length of Visible Light 12h 29m
Length of Day
11h 36m
New Moon, 1% of the Moon is Illuminated
Oct 5
New Moon
Oct 11
First Quarter
Oct 18
Full
Oct 26
Last Quarter
Nov 3
New

Hourly Weather History & Observations

Time (CDT) Temp. Dew Point Humidity Pressure Visibility Wind Dir Wind Speed Gust Speed Precip Events Conditions
12:13 AM 68.0 °F 64.4 °F 88% 29.90 in 10.0 mi WSW 9.2 mph - 0.03 in Rain Light Rain
12:53 AM 66.9 °F 64.0 °F 90% 29.89 in 10.0 mi WSW 11.5 mph - 0.04 in Rain Light Rain
1:53 AM 59.0 °F 52.0 °F 78% 29.91 in 10.0 mi West 8.1 mph - 0.00 in Rain Light Rain
2:53 AM 55.9 °F 51.1 °F 84% 29.91 in 10.0 mi WNW 8.1 mph - 0.02 in   Mostly Cloudy
3:53 AM 55.0 °F 46.0 °F 72% 29.95 in 8.0 mi West 6.9 mph - 0.01 in Rain Rain
4:53 AM 51.1 °F 46.0 °F 83% 29.93 in 6.0 mi NW 11.5 mph - 0.14 in Rain Rain
5:53 AM 52.0 °F 46.0 °F 80% 29.94 in 10.0 mi WNW 8.1 mph - 0.00 in   Clear
6:53 AM 48.9 °F 42.1 °F 77% 29.98 in 10.0 mi WNW 5.8 mph - N/A   Scattered Clouds
7:53 AM 48.0 °F 39.9 °F 74% 29.99 in 10.0 mi WNW 5.8 mph - N/A   Clear
8:53 AM 48.9 °F 39.0 °F 69% 30.00 in 10.0 mi NW 11.5 mph 18.4 mph N/A   Mostly Cloudy
9:53 AM 50.0 °F 35.1 °F 57% 30.01 in 10.0 mi NW 8.1 mph - N/A   Mostly Cloudy
10:53 AM 53.1 °F 37.0 °F 55% 30.02 in 10.0 mi WNW 11.5 mph - N/A   Mostly Cloudy
11:53 AM 53.1 °F 37.0 °F 55% 30.02 in 10.0 mi WNW 8.1 mph - N/A   Overcast
12:53 PM 57.0 °F 37.9 °F 49% 30.01 in 10.0 mi West 11.5 mph - N/A   Mostly Cloudy
1:53 PM 57.9 °F 37.9 °F 47% 29.99 in 10.0 mi WNW 15.0 mph 20.7 mph N/A   Clear
2:53 PM 59.0 °F 37.9 °F 46% 29.95 in 10.0 mi WSW 12.7 mph 19.6 mph N/A   Clear
3:53 PM 59.0 °F 36.0 °F 42% 29.94 in 10.0 mi West 12.7 mph - N/A   Clear
4:53 PM 57.9 °F 35.1 °F 42% 29.94 in 10.0 mi WSW 12.7 mph 21.9 mph N/A   Clear
5:53 PM 57.0 °F 36.0 °F 45% 29.94 in 10.0 mi West 13.8 mph 19.6 mph N/A   Clear
6:53 PM 52.0 °F 37.0 °F 57% 29.94 in 10.0 mi SW 6.9 mph - N/A   Clear
7:53 PM 53.1 °F 37.0 °F 55% 29.94 in 10.0 mi SSW 6.9 mph - N/A   Clear
8:53 PM 51.1 °F 37.9 °F 61% 29.94 in 10.0 mi SSW 8.1 mph - N/A   Scattered Clouds
9:53 PM 48.9 °F 39.0 °F 69% 29.96 in 10.0 mi WSW 6.9 mph - N/A   Clear
10:53 PM 48.0 °F 37.9 °F 68% 29.94 in 10.0 mi SW 3.5 mph - N/A   Clear
11:53 PM 46.9 °F 37.0 °F 68% 29.93 in 10.0 mi WSW 4.6 mph - N/A   Clear